Dryden, TX

9:23 AM CDT on March 26, 2017 (GMT -0500)
Dryden

Weather History for K6R6 - November, 2013

Change the Weather History Date:

Monday, November 18, 2013

  Actual Average (KFST) Record (KFST)
Temperature  
Mean Temperature 65 °F -  
Max Temperature 75 °F 66 °F 84 °F (1999)
Min Temperature 55 °F 43 °F 30 °F (2005)
Growing Degree Days 15 (Base 50)    
Moisture  
Dew Point 43 °F    
Average Humidity 47    
Maximum Humidity 62    
Minimum Humidity 30    
Precipitation  
Precipitation 0.00 in - - ()
Sea Level Pressure  
Sea Level Pressure 30.01 in    
Wind  
Wind Speed 5 mph (NNW)    
Max Wind Speed 9 mph    
Max Gust Speed -    
Averages and records for this station are not official NWS values.
T = Trace of Precipitation, MM = Missing Value Source: NWS Daily Summary

Daily Weather History Graph

Daily Weather History Graph

Search for Another Location

Airport or City:

Trip Planner

Search our weather history database for the weather conditions in past years. The results will help you decide how hot, cold, wet, or windy it might be!

Date:

Astronomy

Nov. 18, 2013 Rise Set
Actual Time 7:16 AM CST 5:51 PM CST
Civil Twilight 6:51 AM CST 6:16 PM CST
Nautical Twilight 6:22 AM CST 6:45 PM CST
Astronomical Twilight 5:53 AM CST 7:14 PM CST
Moon 6:56 PM CST (11/18) 8:06 AM CST (11/18)
Length of Visible Light 11h 25m
Length of Day
10h 34m
Full, 99% of the Moon is Illuminated
Nov 18
Full
Nov 25
Last Quarter
Dec 2
New
Dec 9
First Quarter
Dec 17
Full

Hourly Weather History & Observations

Time (CST) Temp. Dew Point Humidity Pressure Visibility Wind Dir Wind Speed Gust Speed Precip Events Conditions
12:53 AM 57.9 °F 42.1 °F 56% 29.94 in - WSW 5.8 mph - N/A   Unknown
1:53 AM 61.0 °F 41.0 °F 48% 29.94 in - West 4.6 mph - N/A   Unknown
2:53 AM 63.0 °F 42.1 °F 46% 29.95 in - Calm Calm - N/A   Unknown
3:53 AM 61.0 °F 44.1 °F 54% 29.95 in - Calm Calm - N/A   Unknown
4:53 AM 59.0 °F 42.1 °F 53% 29.96 in - WNW 4.6 mph - N/A   Unknown
5:53 AM 55.9 °F 42.1 °F 60% 29.98 in - West 5.8 mph - N/A   Unknown
6:53 AM 55.9 °F 43.0 °F 62% 30.00 in - WNW 4.6 mph - N/A   Unknown
7:53 AM 57.9 °F 45.0 °F 62% 30.02 in - WSW 4.6 mph - N/A   Unknown
8:53 AM 62.1 °F 45.0 °F 53% 30.04 in - WNW 3.5 mph - N/A   Unknown
9:53 AM 66.9 °F 46.0 °F 47% 30.05 in - WNW 4.6 mph - N/A   Unknown
10:53 AM 73.0 °F 46.9 °F 39% 30.06 in - East 8.1 mph - N/A   Unknown
11:53 AM 72.0 °F 44.1 °F 37% 30.06 in - ENE 3.5 mph - N/A   Unknown
12:53 PM 73.0 °F 44.1 °F 35% 30.03 in - Calm Calm - N/A   Unknown
1:53 PM 75.9 °F 42.1 °F 30% 30.01 in - North 3.5 mph - N/A   Unknown
2:53 PM 75.0 °F 43.0 °F 32% 29.99 in - NNE 5.8 mph - N/A   Unknown
3:53 PM 73.9 °F 44.1 °F 34% 29.99 in - NNE 5.8 mph - N/A   Unknown
4:53 PM 72.0 °F 46.0 °F 40% 30.00 in - ENE 5.8 mph - N/A   Unknown
5:53 PM 68.0 °F 44.1 °F 42% 30.01 in - NNE 4.6 mph - N/A   Unknown
6:53 PM 63.0 °F 44.1 °F 50% 30.03 in - NNE 5.8 mph - N/A   Unknown
7:53 PM 61.0 °F 43.0 °F 52% 30.05 in - North 8.1 mph - N/A   Unknown
8:53 PM 61.0 °F 42.1 °F 50% 30.05 in - North 6.9 mph - N/A   Unknown
9:53 PM 61.0 °F 39.9 °F 46% 30.04 in - NNW 9.2 mph - N/A   Unknown
10:53 PM 59.0 °F 39.9 °F 49% 30.04 in - North 9.2 mph - N/A   Unknown
11:53 PM 59.0 °F 41.0 °F 51% 30.04 in - North 5.8 mph - N/A   Unknown